Location: Paris
(48.6709°N, 2.3750°E)
Time: 09:01:50
(UTC+02:00)

KKS-1 - Pass Details

Date: 07 July 2022
Orbit: 635 x 648 km, 98.2° (Epoch: 08 August)

Event Time Altitude Azimuth Distance (km) Brightness Sun altitude
Rises 22:54:43 0° 26° (NNE) 2,973 ? -8.2°
Reaches altitude 10° 22:57:27 10° 43° (NE) 2,055 ? -8.5°
Maximum altitude 23:00:48 20° 92° (E) 1,476 ? -8.8°
Enters shadow 23:03:39 12° 136° (SE) 1,909 ? -9.1°
